Temperature
3 3 3 3 3 4 4 4 3 3 3 4 5 6 6 6 6 6 6 7 7 7 7 7 7 7 7 7 7 7 7 7 7 7 7 7 7 7
3 3 3 3 3 3 3 3 3 3 3 4 4 5 5 5 5 5 6 6 6 6 6 7 7 7 7 7 7 7 7 7 6 6 6 6 6 6
2 2 2 2 3 3 3 3 3 3 3 3 3 4 4 4 4 5 5 5 6 6 6 6 6 6 6 6 6 6 6 6 6 6 6 6 6 6
2 2 2 2 2 2 2 2 2 2 2 3 3 3 4 4 4 4 4 5 5 5 5 6 6 6 6 6 6 6 6 6 6 6 6 6 6 5
1 1 1 1 2 2 2 2 2 2 2 2 2 3 3 3 3 3 4 4 4 5 5 5 5 5 5 5 5 5 5 5 5 5 5 5 5 5
0 1 1 1 1 1 1 1 2 2 2 2 2 2 2 2 2 3 3 3 4 4 4 4 4 4 5 5 5 5 5 5 5 5 5 5 5 5
-0 -0 0 1 1 1 1 1 1 1 1 1 1 1 1 2 2 2 2 3 3 3 3 4 4 4 4 4 4 4 4 4 4 5 5 4 4 4
-1 -1 -0 -0 0 0 1 1 1 1 1 1 1 1 1 1 2 2 2 2 2 3 3 3 3 3 3 3 4 4 4 4 4 4 4 4 4 4
-1 -1 -1 -1 -1 -0 0 0 0 0 1 1 1 1 1 1 1 1 1 2 2 2 2 2 3 3 3 3 3 3 3 3 3 3 3 3 3 3
-2 -2 -1 -1 -1 -1 -0 -0 -0 0 0 0 1 1 1 1 1 1 1 1 1 2 2 1 2 2 3 3 3 3 3 3 3 3 3 3 3 3
-2 -2 -2 -1 -1 -1 -1 -1 -1 -0 -0 -0 0 0 0 0 0 0 0 0 0 1 1 1 1 1 2 2 2 2 2 2 2 2 2 2 2 2
-2 -2 -2 -2 -1 -1 -1 -1 -1 -1 -1 -0 -0 -0 -0 -0 -0 -0 -0 -0 -0 -0 0 0 0 0 0 1 2 2 2 2 2 2 2 2 2 2
-3 -3 -2 -2 -2 -2 -1 -1 -1 -1 -1 -1 -1 -1 -1 -1 -1 -1 -1 -1 -1 -1 -0 -0 -0 -0 -0 -0 1 1 1 1 1 1 1 1 1 1
-3 -3 -3 -3 -2 -2 -2 -2 -1 -1 -1 -1 -1 -1 -1 -1 -1 -1 -1 -1 -1 -1 -1 -1 -1 -1 -1 -1 -1 0 0 0 1 1 1 1 1 1
-4 -3 -3 -3 -3 -2 -2 -2 -2 -2 -2 -2 -2 -2 -1 -1 -2 -2 -2 -2 -2 -2 -2 -2 -2 -1 -1 -2 -1 -1 -1 -0 0 0 0 0 0 0
-4 -4 -4 -3 -3 -3 -3 -2 -2 -2 -2 -2 -2 -2 -2 -2 -2 -2 -2 -2 -2 -2 -2 -2 -2 -2 -2 -2 -2 -2 -1 -1 -1 -1 -1 -1 -1 -1
-5 -4 -4 -4 -4 -3 -3 -3 -3 -3 -3 -2 -2 -3 -3 -3 -3 -3 -3 -3 -3 -3 -3 -2 -2 -3 -3 -3 -3 -2 -2 -2 -1 -1 -1 -1 -1 -1
-5 -5 -5 -5 -4 -4 -4 -4 -3 -3 -3 -3 -3 -3 -3 -3 -3 -3 -3 -3 -3 -3 -3 -3 -3 -3 -3 -3 -3 -3 -3 -2 -2 -2 -2 -2 -2 -2
-6 -6 -5 -5 -5 -5 -4 -4 -4 -4 -4 -4 -3 -3 -3 -4 -4 -4 -4 -4 -4 -4 -4 -4 -4 -4 -4 -4 -4 -3 -3 -3 -3 -3 -3 -3 -3 -2
-6 -6 -6 -6 -5 -5 -5 -5 -4 -4 -4 -4 -4 -4 -4 -4 -4 -4 -4 -4 -4 -4 -4 -4 -4 -4 -4 -4 -4 -4 -3 -3 -4 -3 -3 -3 -3 -3
-6 -6 -6 -6 -6 -6 -5 -5 -5 -5 -4 -4 -4 -4 -4 -4 -4 -4 -4 -4 -5 -5 -4 -4 -4 -4 -4 -5 -5 -4 -4 -4 -4 -4 -4 -4 -4 -4
-7 -7 -6 -6 -6 -6 -6 -6 -5 -5 -5 -5 -5 -5 -5 -5 -5 -5 -5 -5 -5 -5 -5 -5 -5 -5 -5 -5 -5 -5 -4 -4 -5 -5 -5 -5 -5 -5
-7 -7 -7 -7 -7 -7 -6 -6 -6 -6 -5 -5 -5 -5 -5 -5 -5 -5 -5 -5 -5 -5 -5 -5 -5 -5 -5 -5 -5 -5 -5 -5 -5 -5 -5 -5 -5 -5
Wind_Speed
4 5 4 4 4 3 3 4 4 4 5 4 2 2 3 3 4 5 5 5 5 5 7 8 8 7 6 6 7 7 7 7 8 8 8 9 9 8
4 4 5 4 4 3 4 3 4 5 6 3 3 3 3 4 5 5 6 6 6 7 7 8 8 8 8 8 7 7 7 7 8 7 8 9 8 8
5 5 6 5 5 4 4 4 4 4 7 5 3 3 3 3 4 4 5 6 7 8 9 9 8 9 9 9 9 8 8 8 8 8 8 8 8 8
6 6 6 6 6 5 5 6 5 5 6 7 5 3 4 4 4 4 4 6 6 9 10 10 10 9 10 10 10 9 8 9 9 9 9 8 9 9
7 7 7 6 7 6 6 6 6 6 5 6 6 4 3 3 3 3 4 5 6 8 10 10 10 10 11 11 11 11 10 9 10 10 10 10 9 10
7 7 8 8 8 7 7 7 6 6 6 6 5 4 4 3 3 4 4 5 5 5 6 8 10 11 11 12 12 12 11 11 11 11 11 10 10 10
8 8 9 10 11 10 8 7 7 7 6 6 6 5 5 5 5 4 6 5 5 4 4 5 6 6 8 11 12 13 13 12 12 12 12 12 11 11
9 9 9 10 11 13 13 13 12 10 9 8 7 8 8 7 6 6 5 4 5 3 4 6 5 6 6 7 10 12 13 13 13 12 12 12 12 12
9 9 9 9 10 9 11 12 13 15 14 11 11 11 10 9 7 7 7 7 6 4 4 5 4 6 6 9 11 12 13 13 13 13 12 12 13 13
9 9 10 10 10 10 9 10 10 11 13 12 11 11 10 9 9 9 8 6 3 3 4 5 4 5 6 7 10 12 12 13 13 13 13 13 13 13
9 9 9 10 12 12 10 10 11 10 11 13 14 13 14 13 10 6 6 5 5 5 4 4 3 3 4 5 8 11 12 12 13 13 13 13 13 13
8 9 11 12 13 12 10 10 11 10 7 7 8 9 10 11 13 10 9 7 5 4 4 4 3 2 3 3 4 5 7 10 12 13 13 13 12 9
8 7 8 12 14 14 13 11 12 10 7 7 7 6 6 6 7 8 8 8 7 5 4 3 3 3 3 2 2 3 4 4 6 9 11 12 12 9
9 7 8 12 13 14 11 12 12 10 6 6 6 6 6 6 6 6 6 6 6 6 6 5 3 4 3 3 3 3 3 4 5 5 6 9 11 12
8 11 12 12 11 10 11 12 10 7 6 7 7 7 6 5 4 4 4 4 3 4 6 6 4 4 4 4 4 3 3 4 4 4 5 5 6 6
8 9 10 11 10 10 9 7 6 6 6 6 6 5 4 4 5 4 4 4 4 4 4 5 6 5 5 5 5 5 4 3 3 4 4 5 6 7
6 5 4 5 5 5 5 5 4 4 5 5 5 5 5 5 5 5 4 4 4 5 4 3 3 4 5 5 5 6 5 4 4 4 4 5 6 6
6 5 5 5 5 5 4 4 4 5 5 5 5 6 6 6 5 5 4 5 5 5 5 4 3 2 2 3 6 6 5 5 4 4 4 5 7 6
5 4 5 5 5 4 4 4 5 4 4 4 5 5 6 5 5 5 5 5 5 5 5 4 5 5 5 6 4 5 5 4 4 4 5 5 7 6
4 4 5 5 4 4 4 4 4 4 4 4 4 5 5 6 6 6 6 6 5 5 5 5 5 6 7 6 4 4 6 5 4 5 5 4 5 6
4 4 4 4 3 3 3 3 4 4 4 3 4 4 5 5 5 5 5 7 6 5 6 6 5 5 2 1 2 3 3 5 6 5 4 3 4 4
3 3 3 3 3 3 2 2 2 3 3 4 4 4 4 4 5 5 5 5 5 5 5 3 3 3 3 5 5 4 4 3 3 5 6 7 5 4
3 3 3 3 2 2 2 2 2 2 2 3 3 3 3 3 4 4 4 5 4 4 4 3 3 3 4 5 4 4 4 3 2 2 4 5 6 8
Wind_Direction
237 240 246 244 238 234 221 208 224 256 264 247 235 228 222 229 236 230 229 225 225 220 225 225 223 220 224 226 225 225 224 223 226 230 230 229 234 240
240 241 245 243 236 228 225 231 228 235 257 246 246 245 229 243 251 243 234 231 225 223 225 224 221 219 222 226 225 225 224 221 224 229 231 229 231 237
249 245 245 240 234 227 225 227 231 230 251 262 256 223 225 241 250 246 247 235 232 228 226 223 226 224 221 222 222 225 228 226 225 228 230 228 228 233
250 249 249 242 235 229 226 230 233 234 241 249 250 237 229 222 233 238 257 247 239 237 230 225 226 229 225 224 222 225 228 229 228 228 227 230 230 232
253 249 250 241 242 236 229 233 236 241 241 236 245 245 242 226 229 250 260 249 239 240 235 230 229 231 231 228 227 228 229 231 230 228 227 229 235 236
257 255 252 244 240 237 235 233 233 235 236 230 238 242 242 231 217 235 258 246 236 240 244 241 238 238 238 233 232 232 231 231 233 232 230 231 235 240
261 256 255 250 246 243 240 234 229 232 232 229 234 243 240 227 227 231 242 243 238 232 236 238 232 234 239 238 235 234 234 234 234 234 234 234 237 240
263 262 261 255 250 251 249 242 235 231 231 231 236 233 236 234 232 225 232 236 248 223 220 243 225 235 239 239 237 235 235 236 235 235 237 238 238 239
257 262 265 262 253 246 249 248 243 240 236 234 232 234 233 227 223 224 230 233 244 216 211 245 235 242 248 247 240 236 236 236 237 238 239 240 239 239
255 256 258 256 252 248 248 248 244 241 239 236 235 236 232 226 221 225 232 243 260 227 204 239 241 244 251 243 239 236 239 238 238 240 240 240 240 241
261 259 259 254 257 254 249 249 250 249 244 239 242 242 236 230 225 221 226 223 247 244 210 224 241 253 256 247 243 241 238 238 239 240 241 240 241 242
264 260 258 258 259 253 244 242 246 250 242 239 240 238 231 224 222 218 218 219 234 241 212 207 222 227 263 257 247 249 242 241 244 244 242 242 242 242
267 265 259 264 265 258 253 244 245 250 238 232 231 228 223 218 215 215 217 213 220 231 210 191 205 212 232 265 272 255 245 254 253 250 243 241 240 239
268 268 264 269 271 266 256 247 248 250 237 228 226 225 222 222 216 209 211 213 220 225 210 203 209 212 223 250 261 263 269 263 253 249 253 251 246 244
270 271 271 271 273 269 257 248 241 236 232 229 227 226 220 212 201 203 201 196 209 226 222 220 210 215 224 240 245 255 270 269 258 247 244 246 246 246
276 276 275 273 271 266 257 247 238 230 226 228 225 222 209 204 207 203 203 194 208 237 246 224 214 211 232 241 241 252 246 246 253 263 259 252 252 243
284 280 274 276 271 262 251 241 234 229 231 225 218 220 216 210 210 202 203 206 217 226 228 228 229 227 229 229 241 244 246 254 253 258 261 263 255 244
291 271 270 269 267 263 251 245 238 231 223 216 214 214 213 210 209 205 206 207 211 219 218 210 205 228 264 267 241 236 238 246 252 253 256 259 260 254
277 268 266 267 267 261 250 243 242 238 229 218 214 212 211 209 205 205 205 207 213 218 217 211 208 210 232 250 261 233 231 244 245 248 250 252 256 259
271 267 270 271 268 263 256 246 242 238 226 220 218 211 207 205 204 206 207 208 214 218 221 217 215 215 225 234 243 262 242 235 238 248 260 268 272 282
287 282 277 277 278 273 266 253 239 232 223 217 216 214 208 203 206 208 208 213 219 219 219 223 226 222 222 219 241 257 255 253 247 248 248 260 275 279
302 300 297 291 284 278 276 269 258 239 223 218 217 215 213 206 205 205 206 210 218 218 223 225 206 209 219 228 235 247 262 275 280 279 270 257 241 240
314 306 303 297 289 282 274 270 266 256 237 221 217 214 212 215 211 208 212 214 210 207 210 217 222 224 227 222 230 241 247 261 276 293 299 295 277 273
Height
1494 1495 1496 1497 1499 1499 1500 1502 1503 1501 1500 1501 1503 1504 1505 1506 1508 1509 1510 1511 1513 1514 1515 1517 1518 1520 1521 1522 1524 1525 1526 1527 1528 1529 1530 1531 1532 1533
1489 1490 1491 1492 1493 1495 1496 1497 1498 1498 1497 1496 1498 1499 1500 1501 1503 1504 1505 1506 1507 1508 1510 1511 1513 1514 1516 1517 1518 1519 1521 1522 1523 1524 1525 1526 1526 1527
1484 1485 1486 1488 1488 1489 1491 1492 1493 1494 1492 1491 1493 1494 1495 1496 1497 1498 1499 1500 1501 1503 1504 1506 1507 1508 1510 1511 1512 1514 1515 1516 1517 1518 1519 1520 1521 1522
1478 1479 1480 1482 1483 1484 1485 1486 1487 1488 1488 1487 1487 1488 1489 1491 1492 1493 1493 1495 1496 1497 1498 1500 1501 1502 1504 1505 1506 1508 1509 1510 1511 1512 1513 1514 1515 1516
1473 1474 1475 1476 1477 1478 1479 1480 1481 1482 1483 1482 1481 1483 1484 1485 1486 1487 1488 1488 1489 1491 1492 1493 1495 1496 1497 1499 1500 1501 1503 1504 1505 1506 1507 1508 1509 1510
1467 1468 1469 1470 1471 1472 1473 1474 1475 1476 1476 1476 1476 1477 1478 1479 1480 1480 1481 1482 1483 1484 1485 1487 1488 1489 1491 1492 1494 1495 1496 1498 1499 1500 1501 1502 1503 1504
1461 1462 1462 1463 1464 1466 1467 1467 1468 1469 1469 1470 1470 1471 1471 1472 1473 1474 1475 1476 1476 1477 1478 1480 1482 1483 1484 1485 1487 1488 1489 1491 1492 1493 1495 1496 1496 1497
1454 1455 1456 1456 1457 1458 1460 1461 1462 1462 1463 1463 1463 1463 1464 1466 1467 1469 1469 1469 1468 1471 1472 1473 1475 1475 1477 1479 1480 1481 1483 1484 1485 1486 1488 1489 1490 1491
1448 1448 1448 1449 1450 1451 1451 1452 1453 1454 1456 1456 1456 1455 1457 1459 1460 1461 1462 1463 1462 1464 1467 1466 1468 1469 1470 1472 1473 1475 1476 1477 1478 1480 1481 1481 1483 1484
1441 1442 1442 1442 1443 1444 1444 1444 1445 1445 1447 1448 1449 1449 1451 1452 1454 1455 1456 1456 1457 1458 1460 1460 1460 1462 1464 1465 1466 1468 1469 1470 1471 1472 1473 1474 1475 1476
1434 1434 1435 1435 1435 1437 1437 1437 1437 1437 1439 1440 1441 1442 1443 1445 1447 1449 1449 1449 1448 1450 1453 1453 1454 1455 1456 1457 1459 1461 1462 1463 1464 1465 1466 1467 1469 1470
1427 1427 1427 1428 1428 1429 1430 1429 1429 1429 1431 1432 1433 1435 1436 1437 1439 1441 1441 1442 1442 1443 1444 1447 1448 1449 1449 1450 1453 1454 1455 1456 1457 1458 1459 1460 1462 1462
1420 1419 1419 1420 1421 1421 1422 1422 1421 1423 1424 1425 1426 1427 1428 1429 1431 1433 1434 1435 1436 1436 1439 1441 1442 1443 1444 1444 1445 1447 1448 1449 1450 1451 1452 1453 1454 1455
1413 1413 1413 1413 1413 1413 1413 1414 1415 1416 1417 1417 1418 1419 1420 1422 1423 1425 1427 1428 1430 1431 1433 1435 1436 1437 1437 1438 1438 1439 1441 1442 1443 1444 1445 1446 1447 1448
1407 1407 1406 1406 1405 1405 1405 1406 1408 1409 1409 1409 1410 1411 1413 1415 1417 1418 1420 1422 1424 1425 1427 1429 1430 1431 1432 1432 1432 1433 1434 1434 1436 1437 1438 1439 1439 1440
1401 1400 1399 1398 1398 1397 1398 1399 1400 1401 1401 1402 1402 1404 1406 1408 1409 1411 1413 1414 1417 1418 1421 1423 1424 1425 1425 1426 1427 1427 1428 1428 1429 1430 1431 1431 1432 1433
1394 1393 1392 1391 1390 1390 1390 1391 1392 1393 1394 1395 1396 1397 1399 1400 1402 1404 1406 1408 1410 1411 1414 1416 1418 1419 1420 1420 1421 1421 1421 1422 1423 1423 1424 1423 1424 1425
1389 1387 1385 1385 1385 1384 1384 1384 1385 1385 1386 1387 1389 1390 1392 1393 1395 1398 1400 1402 1404 1406 1408 1410 1412 1413 1414 1414 1415 1414 1415 1415 1416 1417 1417 1417 1416 1418
1383 1381 1381 1380 1379 1379 1379 1379 1379 1380 1380 1381 1382 1384 1386 1387 1389 1391 1394 1396 1398 1400 1402 1404 1405 1406 1406 1406 1407 1410 1410 1410 1410 1411 1411 1411 1410 1411
1377 1377 1376 1375 1374 1374 1373 1373 1374 1374 1375 1376 1377 1378 1380 1382 1383 1385 1388 1390 1392 1394 1396 1397 1399 1399 1400 1401 1401 1402 1405 1405 1404 1404 1405 1405 1405 1405
1373 1372 1372 1371 1370 1369 1369 1369 1369 1369 1370 1371 1372 1373 1375 1376 1378 1380 1382 1384 1386 1388 1389 1391 1392 1395 1396 1397 1397 1396 1398 1399 1400 1399 1399 1399 1398 1397
1370 1369 1368 1367 1366 1365 1365 1365 1364 1365 1365 1366 1367 1369 1370 1372 1373 1375 1377 1379 1381 1382 1384 1386 1387 1389 1390 1390 1390 1390 1391 1393 1394 1394 1394 1394 1393 1391
1367 1366 1364 1364 1363 1362 1361 1361 1361 1361 1361 1362 1363 1365 1366 1367 1369 1370 1372 1374 1375 1377 1379 1380 1382 1383 1384 1385 1385 1385 1386 1386 1387 1387 1388 1388 1389 1388